Tracking 21074 objects as of 11-Aug-2020
HD Live streaming from Space Station
objects crossing your sky now
Track the most recent launched group of Starlink satellites

DELTA 2 R/B(1)

Track DELTA 2 R/B(1) now!
10-day predictions


NORAD ID: 22097
Int'l Code: 1992-057B
Perigee: 1,775.7 km
Apogee: 2,645.5 km
Inclination: 25.2 °
Period: 131.9 minutes
Semi major axis: 8581 km
RCS: 10.6891 m2 (large)
Launch date: August 31, 1992
Source: United States (US)
Launch site: AIR FORCE EASTERN TEST RANGE (AFETR)

Note: This is a ROCKET BODY
aabbcc
Your satellite tracking list
Your tracking list is empty




NASA's NSSDC Master Catalog

Two Line Element Set (TLE):
1 22097U 92057B   20223.84053036 +.00000095 +00000-0 +88824-3 0  9998
2 22097 025.1983 280.1107 0506782 267.5495 259.9604 10.92076611115954
Source of the keplerian elements: AFSPC